Flag for Russia Weather past 2 weeks in Yuzhno-Sakhalinsk, Russia

Now
43 °F

Fog.


Feels Like: 43 °F
Forecast: 43 / 59 °F
Wind: No wind

Location: Yuzhno Airport-Sakhalinsk

Current Time: Sep 17, 2014 at 6:47:57 AM

Latest Report: Sep 17, 2014 at 6:30 AM


Visibility: 0 mi

Pressure: 29.71 "Hg

Humidity: 100%

Dew point: 43 °F

Location of Yuzhno-SakhalinskLocation

Historic Weather in Yuzhno-Sakhalinsk — Graph

°F

Yuzhno-Sakhalinsk temperature yesterday

Maximum temperature yesterday: 63 °F (at 11:00 AM)
Minimum temperature yesterday: 46 °F (at 11:00 PM)
Average temperature yesterday: 57 °F

Past Weeks' High & Low Weather Summary

 TemperatureHumidityPressure
High79 °F (Sep 3, 1:30 PM)100% (Sep 2, 6:00 AM)30.09 "Hg (Sep 2, 6:00 AM)
Low32 °F (Sep 14, 6:00 AM)49% (Sep 14, 2:00 PM)29.65 "Hg (Sep 6, 2:30 PM)
Average59 °F86%29.90 "Hg
* Reported Sep 2 5:00 AM — Sep 17 5:00 AM, Yuzhno-Sakhalinsk, Weather by CustomWeather, © 2014

Note: Actual official high and low records may vary slightly from our data, if they occured in-between our weather recording intervals... More about our weather records

Advertising

Yuzhno-Sakhalinsk weather history for previous 24 hours

 ConditionsComfort  
Time TempWeatherWind HumidityBarometerVisibility
5:00 AM
Sep 17
45 °FFog.1 mph100%29.71 "Hg1 mi
4:00 AM46 °FFog.1 mph100%29.71 "Hg1 mi
3:00 AM48 °FFog.No wind100%29.71 "Hg1 mi
2:00 AM48 °FFog.1 mph100%29.71 "Hg1 mi
1:00 AM46 °FFog.1 mph100%29.71 "Hg1 mi
12:00 AM48 °FFog.No wind100%29.74 "Hg1 mi
11:00 PM
Sep 16
46 °FFog.1 mph100%29.74 "Hg1 mi
10:00 PM50 °FPassing clouds.No wind100%29.74 "HgN/A
9:30 PM52 °FPassing clouds.3 mph100%29.74 "HgN/A
9:00 PM54 °FPassing clouds.3 mph94%29.74 "HgN/A
8:30 PM55 °FSprinkles. Partly sunny.6 mph94%29.74 "HgN/A
8:00 PM55 °FSprinkles. Partly sunny.3 mph100%29.71 "HgN/A
7:30 PM55 °FSprinkles. Partly sunny.No wind100%29.71 "HgN/A
7:00 PM55 °FSprinkles. Partly sunny.1 mph100%29.74 "HgN/A
6:30 PM57 °FPartly sunny.3 mph94%29.71 "HgN/A
6:00 PM57 °FSprinkles. Partly sunny.1 mph94%29.71 "HgN/A
5:30 PM57 °FRain showers. Partly sunny.1 mph100%29.71 "Hg5 mi
5:00 PM57 °FRain showers. Partly sunny.No wind100%29.71 "Hg5 mi
4:30 PM57 °FRain showers. Partly sunny.1 mph100%29.71 "Hg5 mi
4:00 PM57 °FSprinkles. Partly sunny.3 mph94%29.71 "HgN/A
3:30 PM59 °FSprinkles. Partly sunny.8 mph94%29.71 "Hg5 mi
3:00 PM61 °FPartly sunny.1 mph88%29.71 "HgN/A
2:30 PM63 °FPartly sunny.8 mph88%29.71 "HgN/A
2:00 PM61 °FPartly sunny.6 mph94%29.74 "HgN/A
1:30 PM61 °FPartly sunny.6 mph94%29.74 "HgN/A
1:00 PM61 °FSprinkles. Partly sunny.6 mph94%29.74 "HgN/A
12:30 PM61 °FSprinkles. Partly sunny.6 mph94%29.77 "HgN/A
12:00 PM59 °FScattered clouds.8 mph94%29.77 "HgN/A
11:30 AM61 °FScattered clouds.6 mph83%29.77 "HgN/A
11:00 AM63 °FScattered clouds.6 mph83%29.77 "HgN/A
10:30 AM61 °FScattered clouds.6 mph94%29.77 "HgN/A
10:00 AM61 °FScattered clouds.3 mph94%29.77 "HgN/A
9:30 AM59 °FScattered clouds.3 mph100%29.77 "HgN/A
9:00 AM57 °FScattered clouds.3 mph100%29.77 "HgN/A
8:30 AM57 °FScattered clouds.1 mph100%29.77 "HgN/A
8:00 AM55 °FPassing clouds.No wind100%29.80 "HgN/A
7:30 AM57 °FPartly cloudy.6 mph100%29.77 "Hg4 mi
7:00 AM55 °FFog.3 mph100%29.80 "Hg3 mi
6:30 AM55 °FPassing clouds.3 mph100%29.80 "HgN/A
6:00 AM55 °FPassing clouds.8 mph100%29.80 "HgN/A
Weather by CustomWeather, © 2014

See weather overviewHow to use our weather pages